St. Cloud, MN

8:53 AM CDT on April 21, 2018 (GMT -0500)
Saint Cloud Regional

Weather History for KSTC - August, 2014

Change the Weather History Date:

Saturday, August 9, 2014

  Actual Average Record
Temperature  
Mean Temperature 74 °F 69 °F  
Max Temperature 84 °F 81 °F 96 °F (1900)
Min Temperature 63 °F 57 °F 46 °F (1972)
Degree Days  
Heating Degree Days 0 1  
Month to date heating degree days 0 9  
Since 1 June heating degree days 33 104  
Since 1 July heating degree days 7 26  
Cooling Degree Days 9 5  
Month to date cooling degree days 62 45  
Year to date cooling degree days 414 347  
Since 1 June cooling degree days 370 322  
Growing Degree Days 23 (Base 50)    
Moisture  
Dew Point 59 °F    
Average Humidity 59    
Maximum Humidity 78    
Minimum Humidity 39    
Precipitation  
Precipitation T in 0.12 in 1.75 in (1904)
Month to date precipitation 0.17 1.01  
Year to date precipitation 23.95 16.80  
Snow  
Snow 0.00 in 0.00 in 0.00 in ()
Month to date snowfall 0.0 0.0  
Since 1 June snowfall 0.0 0.0  
Since 1 July snowfall 0.0 0.0  
Snow Depth 0.00 in    
Sea Level Pressure  
Sea Level Pressure 30.09 in    
Wind  
Wind Speed 5 mph (ESE)    
Max Wind Speed 16 mph    
Max Gust Speed 21 mph    
Visibility 10 miles    
Events Rain    
T = Trace of Precipitation, MM = Missing Value Source: NWS Daily Summary

Daily Weather History Graph

Daily Weather History Graph

Search for Another Location

Airport or City:

Astronomy

Aug. 09, 2014 Rise Set
Actual Time 6:09 AM CDT 8:33 PM CDT
Civil Twilight 5:36 AM CDT 9:06 PM CDT
Nautical Twilight 4:55 AM CDT 9:47 PM CDT
Astronomical Twilight 4:08 AM CDT 10:33 PM CDT
Moon 7:33 PM CDT (8/9) 4:50 AM CDT (8/9)
Length of Visible Light 15h 29m
Length of Day
14h 23m
Waxing Gibbous, 98% of the Moon is Illuminated
Aug 9
Waxing Gibbous
Aug 10
Full
Aug 17
Last Quarter
Aug 25
New
Sep 2
First Quarter

Hourly Weather History & Observations

Time (CDT) Temp. Heat Index Dew Point Humidity Pressure Visibility Wind Dir Wind Speed Gust Speed Precip Events Conditions
12:53 AM 69.1 °F - 57.9 °F 68% 30.08 in 10.0 mi East 4.6 mph - N/A   Overcast
1:53 AM 66.9 °F - 57.9 °F 73% 30.08 in 10.0 mi ENE 4.6 mph - N/A   Overcast
2:53 AM 64.9 °F - 57.9 °F 78% 30.09 in 10.0 mi ENE 5.8 mph - N/A   Clear
3:53 AM 66.0 °F - 57.9 °F 75% 30.10 in 10.0 mi ENE 4.6 mph - N/A   Overcast
4:53 AM 66.9 °F - 59.0 °F 76% 30.10 in 10.0 mi East 3.5 mph - N/A   Overcast
5:53 AM 66.0 °F - 59.0 °F 78% 30.10 in 10.0 mi ENE 3.5 mph - N/A   Overcast
6:53 AM 66.9 °F - 59.0 °F 76% 30.11 in 9.0 mi Calm Calm - N/A   Overcast
7:53 AM 68.0 °F - 60.1 °F 76% 30.12 in 9.0 mi Calm Calm - N/A   Overcast
8:53 AM 69.1 °F - 60.1 °F 73% 30.13 in 9.0 mi Calm Calm - N/A   Overcast
9:53 AM 71.1 °F - 62.1 °F 73% 30.14 in 9.0 mi ESE 3.5 mph - N/A   Overcast
10:53 AM 75.9 °F - 62.1 °F 62% 30.13 in 10.0 mi ESE 5.8 mph - N/A   Overcast
12:53 PM 78.1 °F - 57.9 °F 50% 30.12 in 10.0 mi ESE 8.1 mph - N/A   Mostly Cloudy
1:53 PM 80.1 °F 80.4 °F 57.0 °F 45% 30.11 in 10.0 mi SE 8.1 mph - N/A   Overcast
2:53 PM 81.0 °F 80.8 °F 55.9 °F 42% 30.09 in 10.0 mi SE 8.1 mph - N/A   Partly Cloudy
3:53 PM 82.9 °F 82.4 °F 57.0 °F 41% 30.08 in 10.0 mi ESE 10.4 mph - N/A   Clear
4:53 PM 81.0 °F 80.4 °F 53.1 °F 38% 30.08 in 10.0 mi SE 10.4 mph 18.4 mph N/A   Mostly Cloudy
5:53 PM 79.0 °F - 55.0 °F 44% 30.08 in 10.0 mi SSE 10.4 mph - N/A   Mostly Cloudy
6:53 PM 75.0 °F - 60.1 °F 60% 30.07 in 7.0 mi South 9.2 mph - 0.00 in Rain Light Rain
7:53 PM 73.9 °F - 60.1 °F 62% 30.08 in 10.0 mi Calm Calm - 0.00 in   Clear
8:53 PM 68.0 °F - 61.0 °F 78% 30.08 in 10.0 mi Calm Calm - N/A   Clear
9:53 PM 69.8 °F - 60.8 °F 73% 30.06 in 10.0 mi East 4.6 mph - N/A   Clear
10:53 PM 69.1 °F - 59.0 °F 70% 30.06 in 10.0 mi East 4.6 mph - N/A   Clear
11:53 PM 69.1 °F - 60.1 °F 73% 30.07 in 10.0 mi ESE 4.6 mph - N/A   Mostly Cloudy